Other Surface Observations
Issued by NWS Tucson, AZ

Home | Current Version | Previous Version | Text Only | Print | Product List | Glossary On
Versions: 1 2 3 4 5 6 7 8 9 10 11 12 13 14 15 16 17 18 19 20 21 22 23 24 25 26 27 28 29 30 31 32 33 34 35 36 37 38 39 40 41 42 43 44 45 46 47 48 49 50
000
SXUS55 KTWC 231615
OSOTWC

WEATHER ROUNDUP FOR SOUTHEAST ARIZONA
NATIONAL WEATHER SERVICE TUCSON AZ
915 AM MST SUN NOV 23 2014

AZZ504>506-514-231715-
LOCATION       SKY/WX    TMP DP  RH WIND       PRES   REMARKS
TUCSON         SUNNY     51  32  48 S3        30.09R
DAVIS-MONTHAN  SUNNY     52  32  46 S3        30.07R
CHILDRENS PARK N/A       41  29  63 E4                PIMA CO DEQ
ALVERNON/22ND  N/A      N/A N/A N/A N/A               PIMA CO DEQ
CHERRY/GLENN   N/A      N/A N/A N/A N/A               PIMA CO DEQ
TANGERINE      N/A       45 N/A N/A NE5               PIMA CO DEQ
CONTL RANCH    N/A       42  30  63 S3                PIMA CO DEQ
GRANT/1ST      N/A       44  31  60 SE2               PIMA CO DEQ
CRAYCROFT/22ND N/A      N/A N/A N/A N/A               PIMA CO DEQ
GOLFLINKS/KOLB N/A      N/A N/A N/A N/A               PIMA CO DEQ
AJO/12TH       N/A       41  30  65 S6                PIMA CO DEQ
SAGUARO EAST   N/A      N/A N/A N/A N/A               PIMA CO DEQ
FAIRGROUNDS    N/A       43 N/A N/A S6                PIMA CO DEQ
SAGUARO        N/A       47  30  52 N2                *SABINO CYN
SAN CARLOS     N/A       41  24  50 N2                *SAN CARLOS
GREEN VALLEY   N/A       47  33  58 SE1               PIMA CO DEQ
HORSE CAMP CYN N/A       48  25  40 W4                *ARAVAIPA CYN
RINCON MTNS    N/A       37  22  55 W10G20            *NR MANNING CAMP
$$

AZZ509>511-231715-
LOCATION       SKY/WX    TMP DP  RH WIND       PRES   REMARKS
SAFFORD        SUNNY     57  26  30 NW18      30.00R
STRAY HORSE    N/A       35  22  58 W15G32            *
TRAIL CABIN    N/A       43  23  45 NW10G20           *N OF GRANVILLE
BLACK HILLS    N/A       56  27  32 NW11G18           *N OF FT THOMAS
DRY LAKE       N/A       37  23  56 W8G16             *NATANES MTNS
NOON CREEK     N/A       48  25  40 SW4               *PINALENO MTNS
COLUMBINE      N/A       32  22  66 W7G19             *PINALENO MTNS
GUTHRIE        N/A       42  24  48 W22G34            *SW OF GUTHRIE
$$

AZZ502-503-513-231715-
LOCATION       SKY/WX    TMP DP  RH WIND       PRES   REMARKS
NOGALES        SUNNY     53  33  46 S7        30.10R
SELLS          N/A       50  30  46 NE3               *
SASABE         N/A       52  34  50 CALM              *ALTAR VLY
HOPKINS        N/A       40  21  46 W19G27            *SANTA RITA MTNS
CARR CYN       N/A       48  25  40 E2                *W OF HEREFORD
$$

AZZ507-508-512-231715-
LOCATION       SKY/WX    TMP DP  RH WIND       PRES   REMARKS
SIERRA VISTA   SUNNY     56  25  30 W13       30.09R
DOUGLAS        MOSUNNY   48  30  49 CALM      30.08R
EMPIRE MTNS    N/A       57  25  29 W7G12             *LAS CIENEGAS NCA
MULESHOE RANCH N/A       45  24  44 CALM              *PRESERVE
HEADQUARTERS   N/A       49  25  39 SW5G15            *CHIRICAHUA MTNS
$$

.............................NOTES.............................
THIS IS AN AUTOMATED COLLECTIVE WITH MINIMAL QUALITY CONTROL.
PIMA CO DEQ SITES HAVE NONSTANDARD WIND SENSOR HEIGHTS.
PIMA CO DEQ SITES DO NOT REPORT WIND GUSTS.
* INDICATES WIND SENSORS LOCATED AT 20 FEET INSTEAD OF 33 FEET.
..............................KEY..............................
SKY/WX - SKY CONDITION/WEATHER
TMP    - TEMPERATURE IN FAHRENHEIT
DP     - DEWPOINT IN FAHRENHEIT
RH     - RELATIVE HUMIDITY IN PERCENT
WIND   - DIRECTION AND SPEED IN MILES PER HOUR (MPH)
VRB    - VARIABLE WIND DIRECTION
PRES   - MEAN SEA LEVEL PRESSURE IN INCHES OF MERCURY
         F - FALLING PRESSURE   R - RISING PRESSURE
         S - STEADY PRESSURE
VSB    - VISIBILITY IN MILES
HX     - HEAT INDEX IN FAHRENHEIT
WCI    - WIND CHILL INDEX IN FAHRENHEIT
N/A    - NOT AVAILABLE
AFB    - AIR FORCE BASE
         DAVIS-MONTHAN IS DAVIS-MONTHAN AIR FORCE BASE
CYN    - CANYON
MTNS   - MOUNTAINS
NCA    - NATIONAL CONSERVATION AREA
NR     - NEAR
VLY    - VALLEY
CONTL  - CONTINENTAL
PIMA CO DEQ - PIMA COUNTY DEPT OF ENVIRONMENTAL QUALITY



USA.gov is the U.S. government's official web portal to all federal, state and local government web resources and services.